Year,Month,Day,Hour,Minute,Value (Times are PST for windspeed in km/hr)
2020,01,16,00,00,3.40
2020,01,16,00,01,6.90
2020,01,16,00,02,6.90
2020,01,16,00,03,13.00
2020,01,16,00,04,16.30
2020,01,16,00,05,11.40
2020,01,16,00,06,17.50
2020,01,16,00,07,9.00
2020,01,16,00,08,6.30
2020,01,16,00,09,4.40
2020,01,16,00,10,9.10
2020,01,16,00,11,11.30
2020,01,16,00,12,8.80
2020,01,16,00,13,8.90
2020,01,16,00,14,7.00
2020,01,16,00,15,8.70
2020,01,16,00,16,7.00
2020,01,16,00,17,8.60
2020,01,16,00,18,7.10
2020,01,16,00,19,8.30
2020,01,16,00,20,4.00
2020,01,16,00,21,0.90
2020,01,16,00,22,4.10
2020,01,16,00,23,3.30
2020,01,16,00,24,8.60
2020,01,16,00,25,11.10
2020,01,16,00,26,7.70
2020,01,16,00,27,8.30
2020,01,16,00,28,12.90
2020,01,16,00,29,15.70
2020,01,16,00,30,12.00
2020,01,16,00,31,10.90
2020,01,16,00,32,9.10
2020,01,16,00,33,7.40
2020,01,16,00,34,4.80
2020,01,16,00,35,7.00
2020,01,16,00,36,8.50
2020,01,16,00,37,14.40
2020,01,16,00,38,7.90
2020,01,16,00,39,10.20
2020,01,16,00,40,8.60
2020,01,16,00,41,8.40
2020,01,16,00,42,12.40
2020,01,16,00,43,8.50
2020,01,16,00,44,10.70
2020,01,16,00,45,11.10
2020,01,16,00,46,9.40
2020,01,16,00,47,10.80
2020,01,16,00,48,11.60
2020,01,16,00,49,9.40
2020,01,16,00,50,9.50
2020,01,16,00,51,10.30
2020,01,16,00,52,12.20
2020,01,16,00,53,13.30
2020,01,16,00,54,11.40
2020,01,16,00,55,13.00
2020,01,16,00,56,9.40
2020,01,16,00,57,6.10
2020,01,16,00,58,10.00
2020,01,16,00,59,10.40
2020,01,16,01,00,10.30
2020,01,16,01,01,11.50
2020,01,16,01,02,9.40
2020,01,16,01,03,11.90
2020,01,16,01,04,13.90
2020,01,16,01,05,9.40
2020,01,16,01,06,8.70
2020,01,16,01,07,10.30
2020,01,16,01,08,10.10
2020,01,16,01,09,11.50
2020,01,16,01,10,9.60
2020,01,16,01,11,12.00
2020,01,16,01,12,6.90
2020,01,16,01,13,5.30
2020,01,16,01,14,6.00
2020,01,16,01,15,7.50
2020,01,16,01,16,7.50
2020,01,16,01,17,9.40
2020,01,16,01,18,6.80
2020,01,16,01,19,9.90
2020,01,16,01,20,5.60
2020,01,16,01,21,12.40
2020,01,16,01,22,8.00
2020,01,16,01,23,10.60
2020,01,16,01,24,6.90
2020,01,16,01,25,7.00
2020,01,16,01,26,5.90
2020,01,16,01,27,8.00
2020,01,16,01,28,9.40
2020,01,16,01,29,7.50
2020,01,16,01,30,5.20
2020,01,16,01,31,7.10
2020,01,16,01,32,5.70
2020,01,16,01,33,5.30
2020,01,16,01,34,5.90
2020,01,16,01,35,7.70
2020,01,16,01,36,7.60
2020,01,16,01,37,3.70
2020,01,16,01,38,4.80
2020,01,16,01,39,2.70
2020,01,16,01,40,9.50
2020,01,16,01,41,12.30
2020,01,16,01,42,11.70
2020,01,16,01,43,5.60
2020,01,16,01,44,5.20
2020,01,16,01,45,4.80
2020,01,16,01,46,12.00
2020,01,16,01,47,11.40
2020,01,16,01,48,10.70
2020,01,16,01,49,5.50
2020,01,16,01,50,5.90
2020,01,16,01,51,7.80
2020,01,16,01,52,8.50
2020,01,16,01,53,11.20
2020,01,16,01,54,12.10
2020,01,16,01,55,8.10
2020,01,16,01,56,9.20
2020,01,16,01,57,5.80
2020,01,16,01,58,6.00
2020,01,16,01,59,8.80
2020,01,16,02,00,6.70
2020,01,16,02,01,8.20
2020,01,16,02,02,6.50
2020,01,16,02,03,4.60
2020,01,16,02,04,10.10
2020,01,16,02,05,5.20
2020,01,16,02,06,3.00
2020,01,16,02,07,9.70
2020,01,16,02,08,6.40
2020,01,16,02,09,4.10
2020,01,16,02,10,4.40
2020,01,16,02,11,11.10
2020,01,16,02,12,5.70
2020,01,16,02,13,4.50
2020,01,16,02,14,3.90
2020,01,16,02,15,6.50
2020,01,16,02,16,5.20
2020,01,16,02,17,4.20
2020,01,16,02,18,6.30
2020,01,16,02,19,7.40
2020,01,16,02,20,6.20
2020,01,16,02,21,5.50
2020,01,16,02,22,4.40
2020,01,16,02,23,6.00
2020,01,16,02,24,7.00
2020,01,16,02,25,6.30
2020,01,16,02,26,6.40
2020,01,16,02,27,7.80
2020,01,16,02,28,9.40
2020,01,16,02,29,9.50
2020,01,16,02,30,5.40
2020,01,16,02,31,2.10
2020,01,16,02,32,3.80
2020,01,16,02,33,5.10
2020,01,16,02,34,4.90
2020,01,16,02,35,4.60
2020,01,16,02,36,5.90
2020,01,16,02,37,3.70
2020,01,16,02,38,3.70
2020,01,16,02,39,4.80
2020,01,16,02,40,4.90
2020,01,16,02,41,9.30
2020,01,16,02,42,4.90
2020,01,16,02,43,5.90
2020,01,16,02,44,4.50
2020,01,16,02,45,6.20
2020,01,16,02,46,8.30
2020,01,16,02,47,3.00
2020,01,16,02,48,3.20
2020,01,16,02,49,3.60
2020,01,16,02,50,2.90
2020,01,16,02,51,2.90
2020,01,16,02,52,5.20
2020,01,16,02,53,3.60
2020,01,16,02,54,4.80
2020,01,16,02,55,2.20
2020,01,16,02,56,2.80
2020,01,16,02,57,2.60
2020,01,16,02,58,3.00
2020,01,16,02,59,1.40
2020,01,16,03,00,4.00
2020,01,16,03,01,4.20
2020,01,16,03,02,2.00
2020,01,16,03,03,4.80
2020,01,16,03,04,1.70
2020,01,16,03,05,2.00
2020,01,16,03,06,2.90
2020,01,16,03,07,4.90
2020,01,16,03,08,2.10
2020,01,16,03,09,4.40
2020,01,16,03,10,2.20
2020,01,16,03,11,1.00
2020,01,16,03,12,0.90
2020,01,16,03,13,1.00
2020,01,16,03,14,1.80
2020,01,16,03,15,0.40
2020,01,16,03,16,0.00
2020,01,16,03,17,0.90
2020,01,16,03,18,4.20
2020,01,16,03,19,1.20
2020,01,16,03,20,0.10
2020,01,16,03,21,1.30
2020,01,16,03,22,0.10
2020,01,16,03,23,0.10
2020,01,16,03,24,1.20
2020,01,16,03,25,1.40
2020,01,16,03,26,1.00
2020,01,16,03,27,0.50
2020,01,16,03,28,0.60
2020,01,16,03,29,0.00
2020,01,16,03,30,0.00
2020,01,16,03,31,0.20
2020,01,16,03,32,5.20
2020,01,16,03,33,3.60
2020,01,16,03,34,2.60
2020,01,16,03,35,1.70
2020,01,16,03,36,0.90
2020,01,16,03,37,2.50
2020,01,16,03,38,0.20
2020,01,16,03,39,0.30
2020,01,16,03,40,0.40
2020,01,16,03,41,0.10
2020,01,16,03,42,1.70
2020,01,16,03,43,0.60
2020,01,16,03,44,2.10
2020,01,16,03,45,1.20
2020,01,16,03,46,3.40
2020,01,16,03,47,3.00
2020,01,16,03,48,0.50
2020,01,16,03,49,0.10
2020,01,16,03,50,0.40
2020,01,16,03,51,1.70
2020,01,16,03,52,2.30
2020,01,16,03,53,0.40
2020,01,16,03,54,0.30
2020,01,16,03,55,0.40
2020,01,16,03,56,0.30
2020,01,16,03,57,0.10
2020,01,16,03,58,0.50
2020,01,16,03,59,0.50
2020,01,16,04,00,0.50
2020,01,16,04,01,0.20
2020,01,16,04,02,0.60
2020,01,16,04,03,0.80
2020,01,16,04,04,0.20
2020,01,16,04,05,0.60
2020,01,16,04,06,0.60
2020,01,16,04,07,0.60
2020,01,16,04,08,1.60
2020,01,16,04,09,3.40
2020,01,16,04,10,1.30
2020,01,16,04,11,1.50
2020,01,16,04,12,0.40
2020,01,16,04,13,0.90
2020,01,16,04,14,0.90
2020,01,16,04,15,0.20
2020,01,16,04,16,0.00
2020,01,16,04,17,1.30
2020,01,16,04,18,0.80
2020,01,16,04,19,0.00
2020,01,16,04,20,0.10
2020,01,16,04,21,0.60
2020,01,16,04,22,0.70
2020,01,16,04,23,0.20
2020,01,16,04,24,0.00
2020,01,16,04,25,0.20
2020,01,16,04,26,0.00
2020,01,16,04,27,0.00
2020,01,16,04,28,0.00
2020,01,16,04,29,1.10
2020,01,16,04,30,0.50
2020,01,16,04,31,0.60
2020,01,16,04,32,0.10
2020,01,16,04,33,0.40
2020,01,16,04,34,0.80
2020,01,16,04,35,0.20
2020,01,16,04,36,0.30
2020,01,16,04,37,0.10
2020,01,16,04,38,0.10
2020,01,16,04,39,0.10
2020,01,16,04,40,0.10
2020,01,16,04,41,0.30
2020,01,16,04,42,0.20
2020,01,16,04,43,0.50
2020,01,16,04,44,0.30
2020,01,16,04,45,0.00
2020,01,16,04,46,0.60
2020,01,16,04,47,1.20
2020,01,16,04,48,0.20
2020,01,16,04,49,0.50
2020,01,16,04,50,0.00
2020,01,16,04,51,0.20
2020,01,16,04,52,1.60
2020,01,16,04,53,1.60
2020,01,16,04,54,0.60
2020,01,16,04,55,0.90
2020,01,16,04,56,0.20
2020,01,16,04,57,0.00
2020,01,16,04,58,0.40
2020,01,16,04,59,0.60
2020,01,16,05,00,0.20
2020,01,16,05,01,0.30
2020,01,16,05,02,0.30
2020,01,16,05,03,2.10
2020,01,16,05,04,1.70
2020,01,16,05,05,1.70
2020,01,16,05,06,0.80
2020,01,16,05,07,0.40
2020,01,16,05,08,0.80
2020,01,16,05,09,1.40
2020,01,16,05,10,0.30
2020,01,16,05,11,0.70
2020,01,16,05,12,1.40
2020,01,16,05,13,0.20
2020,01,16,05,14,0.20
2020,01,16,05,15,0.00
2020,01,16,05,16,0.20
2020,01,16,05,17,0.10
2020,01,16,05,18,0.40
2020,01,16,05,19,0.80
2020,01,16,05,20,0.30
2020,01,16,05,21,0.80
2020,01,16,05,22,0.50
2020,01,16,05,23,1.20
2020,01,16,05,24,2.90
2020,01,16,05,25,1.70
2020,01,16,05,26,1.30
2020,01,16,05,27,0.90
2020,01,16,05,28,1.70
2020,01,16,05,29,1.10
2020,01,16,05,30,0.60
2020,01,16,05,31,0.60
2020,01,16,05,32,0.20
2020,01,16,05,33,0.70
2020,01,16,05,34,0.30
2020,01,16,05,35,0.40
2020,01,16,05,36,0.50
2020,01,16,05,37,0.00
2020,01,16,05,38,0.20
2020,01,16,05,39,1.30
2020,01,16,05,40,0.50
2020,01,16,05,41,0.20
2020,01,16,05,42,0.00
2020,01,16,05,43,0.00
2020,01,16,05,44,0.00
2020,01,16,05,45,0.00
2020,01,16,05,46,0.00
2020,01,16,05,47,0.00
2020,01,16,05,48,0.00
2020,01,16,05,49,0.00
2020,01,16,05,50,0.00
2020,01,16,05,51,0.00
2020,01,16,05,52,0.00
2020,01,16,05,53,0.00
2020,01,16,05,54,0.00
2020,01,16,05,55,0.00
2020,01,16,05,56,0.00
2020,01,16,05,57,0.00
2020,01,16,05,58,0.00
2020,01,16,05,59,0.00
2020,01,16,06,00,0.00
2020,01,16,06,01,0.00
2020,01,16,06,02,0.00
2020,01,16,06,03,0.00
2020,01,16,06,04,0.00
2020,01,16,06,05,0.00
2020,01,16,06,06,0.00
2020,01,16,06,07,0.00
2020,01,16,06,08,0.00
2020,01,16,06,09,0.00
2020,01,16,06,10,0.00
2020,01,16,06,11,0.00
2020,01,16,06,12,0.00
2020,01,16,06,13,0.00
2020,01,16,06,14,0.00
2020,01,16,06,15,0.00
2020,01,16,06,16,0.00
2020,01,16,06,17,0.00
2020,01,16,06,18,0.00
2020,01,16,06,19,0.00
2020,01,16,06,20,0.00
2020,01,16,06,21,0.00
2020,01,16,06,22,0.00
2020,01,16,06,23,0.00
2020,01,16,06,24,0.00
2020,01,16,06,25,0.00
2020,01,16,06,26,0.00
2020,01,16,06,27,0.00
2020,01,16,06,28,0.00
2020,01,16,06,29,0.00
2020,01,16,06,30,0.00
2020,01,16,06,31,0.00
2020,01,16,06,32,0.00
2020,01,16,06,33,0.00
2020,01,16,06,34,0.00
2020,01,16,06,35,0.00
2020,01,16,06,36,0.00
2020,01,16,06,37,0.00
2020,01,16,06,38,0.00
2020,01,16,06,39,0.00
2020,01,16,06,40,0.00
2020,01,16,06,41,0.00
2020,01,16,06,42,0.00
2020,01,16,06,43,0.00
2020,01,16,06,44,0.00
2020,01,16,06,45,0.00
2020,01,16,06,46,0.00
2020,01,16,06,47,0.10
2020,01,16,06,48,0.00
2020,01,16,06,49,0.00
2020,01,16,06,50,0.00
2020,01,16,06,51,0.00
2020,01,16,06,52,0.00
2020,01,16,06,53,0.00
2020,01,16,06,54,0.00
2020,01,16,06,55,0.00
2020,01,16,06,56,0.00
2020,01,16,06,57,0.00
2020,01,16,06,58,0.00
2020,01,16,06,59,0.00
2020,01,16,07,00,0.00
2020,01,16,07,01,0.00
2020,01,16,07,02,0.00
2020,01,16,07,03,0.00
2020,01,16,07,04,0.00
2020,01,16,07,05,0.00
2020,01,16,07,06,0.00
2020,01,16,07,07,0.00
2020,01,16,07,08,0.00
2020,01,16,07,09,0.00
2020,01,16,07,10,0.00
2020,01,16,07,11,0.00
2020,01,16,07,12,0.00
2020,01,16,07,13,0.00
2020,01,16,07,14,0.00
2020,01,16,07,15,0.00
2020,01,16,07,16,0.00
2020,01,16,07,17,0.00
2020,01,16,07,18,0.00
2020,01,16,07,19,0.00
2020,01,16,07,20,0.00
2020,01,16,07,21,0.00
2020,01,16,07,22,0.00
2020,01,16,07,23,0.00
2020,01,16,07,24,0.00
2020,01,16,07,25,0.00
2020,01,16,07,26,0.00
2020,01,16,07,27,0.00
2020,01,16,07,28,0.00
2020,01,16,07,29,0.00
2020,01,16,07,30,0.00
2020,01,16,07,31,0.00
2020,01,16,07,32,0.00
2020,01,16,07,33,0.00
2020,01,16,07,34,0.00
2020,01,16,07,35,0.00
2020,01,16,07,36,0.00
2020,01,16,07,37,0.00
2020,01,16,07,38,0.00
2020,01,16,07,39,0.00
2020,01,16,07,40,0.00
2020,01,16,07,41,0.00
2020,01,16,07,42,0.00
2020,01,16,07,43,0.00
2020,01,16,07,44,0.00
2020,01,16,07,45,0.00
2020,01,16,07,46,0.00
2020,01,16,07,47,0.00
2020,01,16,07,48,0.00
2020,01,16,07,49,0.00
2020,01,16,07,50,0.00
2020,01,16,07,51,0.00
2020,01,16,07,52,0.00
2020,01,16,07,53,0.00
2020,01,16,07,54,0.00
2020,01,16,07,55,0.00
2020,01,16,07,56,0.00
2020,01,16,07,57,0.00
2020,01,16,07,58,0.00
2020,01,16,07,59,0.00
2020,01,16,08,00,0.00
2020,01,16,08,01,0.00
2020,01,16,08,02,0.00
2020,01,16,08,03,0.00
2020,01,16,08,04,0.00
2020,01,16,08,05,0.00
2020,01,16,08,06,0.00
2020,01,16,08,07,0.00
2020,01,16,08,08,0.00
2020,01,16,08,09,0.00
2020,01,16,08,10,0.00
2020,01,16,08,11,0.00
2020,01,16,08,12,0.00
2020,01,16,08,13,0.00
2020,01,16,08,14,0.00
2020,01,16,08,15,0.00
2020,01,16,08,16,0.00
2020,01,16,08,17,0.00
2020,01,16,08,18,0.00
2020,01,16,08,19,0.00
2020,01,16,08,20,0.00
2020,01,16,08,21,0.00
2020,01,16,08,22,0.00
2020,01,16,08,23,0.00
2020,01,16,08,24,0.00
2020,01,16,08,25,0.00
2020,01,16,08,26,0.00
2020,01,16,08,27,0.00
2020,01,16,08,28,0.00
2020,01,16,08,29,0.00
2020,01,16,08,30,0.00
2020,01,16,08,31,0.00
2020,01,16,08,32,0.00
2020,01,16,08,33,0.00
2020,01,16,08,34,0.00
2020,01,16,08,35,0.00
2020,01,16,08,36,0.00
2020,01,16,08,37,0.00
2020,01,16,08,38,1.80
2020,01,16,08,39,6.00
2020,01,16,08,40,3.50
2020,01,16,08,41,2.80
2020,01,16,08,42,6.10
2020,01,16,08,43,4.40
2020,01,16,08,44,1.80
2020,01,16,08,45,1.70
2020,01,16,08,46,2.90
2020,01,16,08,47,4.00
2020,01,16,08,48,2.70
2020,01,16,08,49,2.00
2020,01,16,08,50,5.20
2020,01,16,08,51,2.20
2020,01,16,08,52,1.00
2020,01,16,08,53,1.00
2020,01,16,08,54,2.80
2020,01,16,08,55,6.70
2020,01,16,08,56,1.20
2020,01,16,08,57,3.90
2020,01,16,08,58,4.50
2020,01,16,08,59,4.00
2020,01,16,09,00,1.20
2020,01,16,09,01,0.80
2020,01,16,09,02,1.30
2020,01,16,09,03,1.00
2020,01,16,09,04,2.50
2020,01,16,09,05,5.10
2020,01,16,09,06,4.90
2020,01,16,09,07,3.90
2020,01,16,09,08,2.40
2020,01,16,09,09,1.20
2020,01,16,09,10,2.80
2020,01,16,09,11,2.50
2020,01,16,09,12,0.80
2020,01,16,09,13,1.30
2020,01,16,09,14,0.00
2020,01,16,09,15,0.00
2020,01,16,09,16,0.70
2020,01,16,09,17,0.00
2020,01,16,09,18,0.00
2020,01,16,09,19,1.00
2020,01,16,09,20,1.50
2020,01,16,09,21,1.20
2020,01,16,09,22,3.70
2020,01,16,09,23,3.30
2020,01,16,09,24,1.90
2020,01,16,09,25,3.70
2020,01,16,09,26,6.60
2020,01,16,09,27,4.50
2020,01,16,09,28,2.60
2020,01,16,09,29,1.70
2020,01,16,09,30,1.00
2020,01,16,09,31,4.40
2020,01,16,09,32,6.40
2020,01,16,09,33,3.20
2020,01,16,09,34,7.30
2020,01,16,09,35,2.40
2020,01,16,09,36,2.80
2020,01,16,09,37,4.20
2020,01,16,09,38,1.10
2020,01,16,09,39,0.70
2020,01,16,09,40,4.00
2020,01,16,09,41,4.10
2020,01,16,09,42,5.40
2020,01,16,09,43,3.00
2020,01,16,09,44,2.10
2020,01,16,09,45,3.00
2020,01,16,09,46,2.90
2020,01,16,09,47,2.40
2020,01,16,09,48,2.70
2020,01,16,09,49,4.10
2020,01,16,09,50,1.30
2020,01,16,09,51,0.30
2020,01,16,09,52,3.70
2020,01,16,09,53,1.90
2020,01,16,09,54,3.00
2020,01,16,09,55,2.80
2020,01,16,09,56,2.30
2020,01,16,09,57,4.10
2020,01,16,09,58,3.50
2020,01,16,09,59,2.60
2020,01,16,10,00,3.00
2020,01,16,10,01,4.10
2020,01,16,10,02,4.60
2020,01,16,10,03,2.20
2020,01,16,10,04,1.30
2020,01,16,10,05,2.50
2020,01,16,10,06,3.60
2020,01,16,10,07,2.90
2020,01,16,10,08,1.80
2020,01,16,10,09,1.70
2020,01,16,10,10,2.60
2020,01,16,10,11,1.20
2020,01,16,10,12,1.10
2020,01,16,10,13,0.10
2020,01,16,10,14,0.00
2020,01,16,10,15,0.50
2020,01,16,10,16,1.60
2020,01,16,10,17,1.00
2020,01,16,10,18,1.60
2020,01,16,10,19,1.40
2020,01,16,10,20,0.90
2020,01,16,10,21,1.90
2020,01,16,10,22,1.10
2020,01,16,10,23,0.80
2020,01,16,10,24,3.10
2020,01,16,10,25,0.90
2020,01,16,10,26,2.90
2020,01,16,10,27,6.20
2020,01,16,10,28,5.80
2020,01,16,10,29,2.60
2020,01,16,10,30,2.70
2020,01,16,10,31,0.30
2020,01,16,10,32,4.90
2020,01,16,10,33,2.20
2020,01,16,10,34,2.00
2020,01,16,10,35,2.00
2020,01,16,10,36,3.80
2020,01,16,10,37,5.40
2020,01,16,10,38,2.70
2020,01,16,10,39,3.90
2020,01,16,10,40,1.40
2020,01,16,10,41,2.40
2020,01,16,10,42,2.50
2020,01,16,10,43,1.90
2020,01,16,10,44,2.10
2020,01,16,10,45,1.70
2020,01,16,10,46,1.70
2020,01,16,10,47,3.00
2020,01,16,10,48,4.00
2020,01,16,10,49,3.80
2020,01,16,10,50,3.20
2020,01,16,10,51,3.70
2020,01,16,10,52,1.70
2020,01,16,10,53,3.90
2020,01,16,10,54,2.70
2020,01,16,10,55,2.00
2020,01,16,10,56,3.30
2020,01,16,10,57,1.80
2020,01,16,10,58,4.10
2020,01,16,10,59,2.80
2020,01,16,11,00,3.60
2020,01,16,11,01,1.70
2020,01,16,11,02,1.60
2020,01,16,11,03,1.60
2020,01,16,11,04,2.20
2020,01,16,11,05,4.40
2020,01,16,11,06,2.30
2020,01,16,11,07,1.70
2020,01,16,11,08,0.70
2020,01,16,11,09,0.00
2020,01,16,11,10,1.50
2020,01,16,11,11,3.40
2020,01,16,11,12,6.80
2020,01,16,11,13,7.00
2020,01,16,11,14,4.50
2020,01,16,11,15,1.50
2020,01,16,11,16,1.80
2020,01,16,11,17,4.50
2020,01,16,11,18,7.60
2020,01,16,11,19,3.60
2020,01,16,11,20,4.30
2020,01,16,11,21,7.60
2020,01,16,11,22,6.40
2020,01,16,11,23,3.30
2020,01,16,11,24,2.60
2020,01,16,11,25,2.60
2020,01,16,11,26,1.30
2020,01,16,11,27,2.60
2020,01,16,11,28,3.60
2020,01,16,11,29,2.30
2020,01,16,11,30,4.00
2020,01,16,11,31,4.00
2020,01,16,11,32,1.80
2020,01,16,11,33,2.40
2020,01,16,11,34,4.90
2020,01,16,11,35,2.40
2020,01,16,11,36,2.90
2020,01,16,11,37,2.60
2020,01,16,11,38,4.40
2020,01,16,11,39,2.50
2020,01,16,11,40,2.90
2020,01,16,11,41,5.10
2020,01,16,11,42,5.00
2020,01,16,11,43,1.90
2020,01,16,11,44,2.90
2020,01,16,11,45,1.60
2020,01,16,11,46,0.50
2020,01,16,11,47,2.30
2020,01,16,11,48,1.00
2020,01,16,11,49,1.00
2020,01,16,11,50,2.80
2020,01,16,11,51,2.90
2020,01,16,11,52,1.40
2020,01,16,11,53,5.10
2020,01,16,11,54,4.20
2020,01,16,11,55,2.10
2020,01,16,11,56,5.70
2020,01,16,11,57,4.30
2020,01,16,11,58,4.90
2020,01,16,11,59,3.00
2020,01,16,12,00,3.70
2020,01,16,12,01,3.60
2020,01,16,12,02,1.30
2020,01,16,12,03,0.90
2020,01,16,12,04,2.90
2020,01,16,12,05,2.80
2020,01,16,12,06,2.60
2020,01,16,12,07,2.80
2020,01,16,12,08,2.90
2020,01,16,12,09,2.10
2020,01,16,12,10,4.40
2020,01,16,12,11,2.50
2020,01,16,12,12,1.60
2020,01,16,12,13,3.10
2020,01,16,12,14,2.40
2020,01,16,12,15,1.10
2020,01,16,12,16,1.60
2020,01,16,12,17,3.40
2020,01,16,12,18,3.30
2020,01,16,12,19,3.80
2020,01,16,12,20,5.90
2020,01,16,12,21,3.60
2020,01,16,12,22,3.20
2020,01,16,12,23,2.60
2020,01,16,12,24,0.50
2020,01,16,12,25,5.80
2020,01,16,12,26,5.30
2020,01,16,12,27,2.60
2020,01,16,12,28,2.20
2020,01,16,12,29,2.80
2020,01,16,12,30,3.00
2020,01,16,12,31,3.50
2020,01,16,12,32,1.40
2020,01,16,12,33,1.30
2020,01,16,12,34,2.50
2020,01,16,12,35,1.60
2020,01,16,12,36,3.50
2020,01,16,12,37,1.90
2020,01,16,12,38,3.50
2020,01,16,12,39,3.70
2020,01,16,12,40,1.90
2020,01,16,12,41,2.40
2020,01,16,12,42,2.80
2020,01,16,12,43,3.80
2020,01,16,12,44,9.00
2020,01,16,12,45,3.60
2020,01,16,12,46,2.30
2020,01,16,12,47,7.20
2020,01,16,12,48,3.20
2020,01,16,12,49,2.00
2020,01,16,12,50,2.60
2020,01,16,12,51,3.40
2020,01,16,12,52,3.40
2020,01,16,12,53,4.20
2020,01,16,12,54,2.10
2020,01,16,12,55,1.00
2020,01,16,12,56,2.10
2020,01,16,12,57,2.60
2020,01,16,12,58,2.30
2020,01,16,12,59,2.90
2020,01,16,13,00,4.50
2020,01,16,13,01,2.50
2020,01,16,13,02,4.50
2020,01,16,13,03,7.30
2020,01,16,13,04,4.20
2020,01,16,13,05,4.50
2020,01,16,13,06,4.90
2020,01,16,13,07,3.40
2020,01,16,13,08,2.90
2020,01,16,13,09,4.30
2020,01,16,13,10,3.00
2020,01,16,13,11,3.60
2020,01,16,13,12,4.10
2020,01,16,13,13,3.50
2020,01,16,13,14,7.10
2020,01,16,13,15,4.00
2020,01,16,13,16,3.90
2020,01,16,13,17,4.70
2020,01,16,13,18,3.60
2020,01,16,13,19,4.50
2020,01,16,13,20,3.00
2020,01,16,13,21,3.30
2020,01,16,13,22,2.90
2020,01,16,13,23,4.10
2020,01,16,13,24,2.60
2020,01,16,13,25,4.60
2020,01,16,13,26,4.00
2020,01,16,13,27,6.20
2020,01,16,13,28,4.40
2020,01,16,13,29,3.00
2020,01,16,13,30,4.50
2020,01,16,13,31,1.40
2020,01,16,13,32,1.40
2020,01,16,13,33,3.20
2020,01,16,13,34,3.30
2020,01,16,13,35,1.70
2020,01,16,13,36,3.10
2020,01,16,13,37,4.20
2020,01,16,13,38,6.40
2020,01,16,13,39,4.90
2020,01,16,13,40,4.00
2020,01,16,13,41,1.80
2020,01,16,13,42,2.80
2020,01,16,13,43,5.70
2020,01,16,13,44,8.00
2020,01,16,13,45,4.90
2020,01,16,13,46,3.60
2020,01,16,13,47,5.50
2020,01,16,13,48,4.30
2020,01,16,13,49,5.30
2020,01,16,13,50,6.00
2020,01,16,13,51,4.40
2020,01,16,13,52,3.50
2020,01,16,13,53,2.30
2020,01,16,13,54,7.30
2020,01,16,13,55,4.90
2020,01,16,13,56,3.50
2020,01,16,13,57,4.00
2020,01,16,13,58,1.70
2020,01,16,13,59,3.20
2020,01,16,14,00,2.70
2020,01,16,14,01,3.30
2020,01,16,14,02,3.70
2020,01,16,14,03,3.70
2020,01,16,14,04,3.90
2020,01,16,14,05,3.30
2020,01,16,14,06,3.10
2020,01,16,14,07,2.60
2020,01,16,14,08,2.50
2020,01,16,14,09,3.20
2020,01,16,14,10,4.40
2020,01,16,14,11,5.20
2020,01,16,14,12,3.70
2020,01,16,14,13,2.40
2020,01,16,14,14,1.00
2020,01,16,14,15,2.30
2020,01,16,14,16,3.80
2020,01,16,14,17,1.70
2020,01,16,14,18,2.80
2020,01,16,14,19,2.10
2020,01,16,14,20,4.00
2020,01,16,14,21,2.60
2020,01,16,14,22,3.50
2020,01,16,14,23,5.20
2020,01,16,14,24,5.60
2020,01,16,14,25,1.60
2020,01,16,14,26,5.10
2020,01,16,14,27,2.00
2020,01,16,14,28,1.90
2020,01,16,14,29,1.60
2020,01,16,14,30,1.90
2020,01,16,14,31,1.30
2020,01,16,14,32,3.50
2020,01,16,14,33,3.40
2020,01,16,14,34,3.20
2020,01,16,14,35,2.70
2020,01,16,14,36,2.40
2020,01,16,14,37,1.90
2020,01,16,14,38,1.00
2020,01,16,14,39,2.70
2020,01,16,14,40,3.20
2020,01,16,14,41,3.00
2020,01,16,14,42,2.30
2020,01,16,14,43,2.20
2020,01,16,14,44,0.90
2020,01,16,14,45,2.40
2020,01,16,14,46,3.40
2020,01,16,14,47,1.20
2020,01,16,14,48,1.30
2020,01,16,14,49,3.20
2020,01,16,14,50,4.90
2020,01,16,14,51,2.40
2020,01,16,14,52,6.00
2020,01,16,14,53,4.40
2020,01,16,14,54,2.60
2020,01,16,14,55,2.60
2020,01,16,14,56,1.20
2020,01,16,14,57,0.40
2020,01,16,14,58,1.70
2020,01,16,14,59,3.50
2020,01,16,15,00,3.30
2020,01,16,15,01,2.30
2020,01,16,15,02,1.00
2020,01,16,15,03,1.00
2020,01,16,15,04,1.40
2020,01,16,15,05,2.60
2020,01,16,15,06,1.30
2020,01,16,15,07,1.10
2020,01,16,15,08,1.40
2020,01,16,15,09,1.20
2020,01,16,15,10,0.50
2020,01,16,15,11,2.20
2020,01,16,15,12,0.20
2020,01,16,15,13,0.80
2020,01,16,15,14,0.10
2020,01,16,15,15,0.60
2020,01,16,15,16,0.80
2020,01,16,15,17,4.20
2020,01,16,15,18,1.30
2020,01,16,15,19,0.70
2020,01,16,15,20,0.80
2020,01,16,15,21,0.20
2020,01,16,15,22,4.70
2020,01,16,15,23,3.90
2020,01,16,15,24,1.00
2020,01,16,15,25,0.70
2020,01,16,15,26,2.00
2020,01,16,15,27,0.60
2020,01,16,15,28,0.00
2020,01,16,15,29,0.00
2020,01,16,15,30,1.10
2020,01,16,15,31,1.30
2020,01,16,15,32,1.80
2020,01,16,15,33,1.50
2020,01,16,15,34,1.70
2020,01,16,15,35,0.80
2020,01,16,15,36,1.00
2020,01,16,15,37,1.30
2020,01,16,15,38,0.20
2020,01,16,15,39,0.80
2020,01,16,15,40,2.50
2020,01,16,15,41,2.10
2020,01,16,15,42,2.00
2020,01,16,15,43,0.30
2020,01,16,15,44,0.00
2020,01,16,15,45,0.10
2020,01,16,15,46,0.20
2020,01,16,15,47,0.20
2020,01,16,15,48,0.40
2020,01,16,15,49,0.80
2020,01,16,15,50,0.90
2020,01,16,15,51,0.40
2020,01,16,15,52,0.70
2020,01,16,15,53,0.80
2020,01,16,15,54,1.90
2020,01,16,15,55,1.10
2020,01,16,15,56,0.30
2020,01,16,15,57,0.00
2020,01,16,15,58,0.50
2020,01,16,15,59,1.30
2020,01,16,16,00,0.70
2020,01,16,16,01,0.20
2020,01,16,16,02,0.90
2020,01,16,16,03,0.40
2020,01,16,16,04,0.10
2020,01,16,16,05,0.20
2020,01,16,16,06,0.10
2020,01,16,16,07,0.50
2020,01,16,16,08,0.20
2020,01,16,16,09,2.40
2020,01,16,16,10,0.70
2020,01,16,16,11,0.10
2020,01,16,16,12,1.40
2020,01,16,16,13,0.00
2020,01,16,16,14,0.00
2020,01,16,16,15,0.00
2020,01,16,16,16,0.00
2020,01,16,16,17,0.00
2020,01,16,16,18,1.40
2020,01,16,16,19,1.00
2020,01,16,16,20,2.10
2020,01,16,16,21,0.60
2020,01,16,16,22,0.60
2020,01,16,16,23,1.20
2020,01,16,16,24,0.00
2020,01,16,16,25,0.40
2020,01,16,16,26,1.20
2020,01,16,16,27,1.80
2020,01,16,16,28,1.00
2020,01,16,16,29,0.40
2020,01,16,16,30,0.80
2020,01,16,16,31,0.30
2020,01,16,16,32,0.90
2020,01,16,16,33,0.10
2020,01,16,16,34,0.50
2020,01,16,16,35,2.00
2020,01,16,16,36,1.40
2020,01,16,16,37,1.50
2020,01,16,16,38,1.40
2020,01,16,16,39,1.40
2020,01,16,16,40,0.70
2020,01,16,16,41,1.40
2020,01,16,16,42,0.90
2020,01,16,16,43,1.50
2020,01,16,16,44,2.20
2020,01,16,16,45,1.70
2020,01,16,16,46,1.40
2020,01,16,16,47,0.90
2020,01,16,16,48,0.50
2020,01,16,16,49,1.00
2020,01,16,16,50,1.20
2020,01,16,16,51,0.90
2020,01,16,16,52,0.80
2020,01,16,16,53,0.80
2020,01,16,16,54,1.80
2020,01,16,16,55,1.60
2020,01,16,16,56,1.30
2020,01,16,16,57,1.70
2020,01,16,16,58,1.00
2020,01,16,16,59,1.70
2020,01,16,17,00,1.00
2020,01,16,17,01,0.90
2020,01,16,17,02,0.40
2020,01,16,17,03,0.90
2020,01,16,17,04,1.40
2020,01,16,17,05,1.40
2020,01,16,17,06,1.40
2020,01,16,17,07,1.50
2020,01,16,17,08,1.40
2020,01,16,17,09,1.00
2020,01,16,17,10,0.80
2020,01,16,17,11,1.40
2020,01,16,17,12,0.90
2020,01,16,17,13,0.90
2020,01,16,17,14,1.30
2020,01,16,17,15,0.90
2020,01,16,17,16,1.20
2020,01,16,17,17,1.00
2020,01,16,17,18,1.40
2020,01,16,17,19,1.70
2020,01,16,17,20,1.50
2020,01,16,17,21,1.20
2020,01,16,17,22,1.60
2020,01,16,17,23,0.20
2020,01,16,17,24,0.60
2020,01,16,17,25,1.40
2020,01,16,17,26,1.00
2020,01,16,17,27,1.20
2020,01,16,17,28,1.00
2020,01,16,17,29,0.70
2020,01,16,17,30,1.70
2020,01,16,17,31,1.10
2020,01,16,17,32,0.90
2020,01,16,17,33,1.30
2020,01,16,17,34,1.30
2020,01,16,17,35,1.70
2020,01,16,17,36,1.40
2020,01,16,17,37,0.00
2020,01,16,17,38,0.00
2020,01,16,17,39,0.00
2020,01,16,17,40,0.00
2020,01,16,17,41,0.00
2020,01,16,17,42,0.00
2020,01,16,17,43,0.00
2020,01,16,17,44,0.00
2020,01,16,17,45,0.00
2020,01,16,17,46,0.00
2020,01,16,17,47,0.00
2020,01,16,17,48,0.00
2020,01,16,17,49,0.00
2020,01,16,17,50,0.00
2020,01,16,17,51,0.50
2020,01,16,17,52,1.40
2020,01,16,17,53,1.90
2020,01,16,17,54,2.10
2020,01,16,17,55,2.00
2020,01,16,17,56,1.60
2020,01,16,17,57,1.80
2020,01,16,17,58,2.20
2020,01,16,17,59,1.40
2020,01,16,18,00,1.60
2020,01,16,18,01,1.30
2020,01,16,18,02,0.80
2020,01,16,18,03,1.60
2020,01,16,18,04,1.30